User: anonymous   Login
Location: Fuglau
(48.6333°N, 15.5500°E)
Time: 06:09:33
(UTC+00:00)
Language:

SL-24 DEB - Orbit

View from above orbital plane
View from above orbital plane
View from above satellite
View from above satellite

Ground track
Ground track

The orbit data is extracted from the following two-line orbital elements,

1 36510U 10013C   20152.45350290 +.00000224 +00000-0 +42778-4 0  9998
2 36510 092.0299 117.9023 0025495 149.8634 210.4053 14.63164045540784
Epoch (UTC): 31 May 2020 10:53:02
Eccentricity: 0.0025495
inclination: 92.0299°
perigee height: 665 km
apogee height: 701 km
right ascension of ascending node: 117.9023°
argument of perigee: 149.8634°
revolutions per day: 14.63164045
mean anomaly at epoch: 210.4053°
orbit number at epoch: 54078

The dashed part of the orbit path shows where the satellite is in the earth's shadow,  

DLR